Poplar Bluff, MO

2:01 PM CDT on September 17, 2019 (GMT -0500)
Poplar Bluff Municipal

Weather History for KPOF - May, 2019

Change the Weather History Date:

Sunday, May 5, 2019

  Actual Average Record
Temperature  
Mean Temperature 60 °F -  
Max Temperature 73 °F 76 °F 93 °F (1952)
Min Temperature 48 °F 51 °F 35 °F (1944)
Degree Days  
Heating Degree Days 5    
Growing Degree Days 10 (Base 50)    
Moisture  
Dew Point 53 °F    
Average Humidity 77    
Maximum Humidity 100    
Minimum Humidity 49    
Precipitation  
Precipitation 0.00 in - - ()
Sea Level Pressure  
Sea Level Pressure 29.92 in    
Wind  
Wind Speed 4 mph (North)    
Max Wind Speed 8 mph    
Max Gust Speed -    
Visibility 10 miles    
Events      
Averages and records for this station are not official NWS values.
T = Trace of Precipitation, MM = Missing Value Source: NWS Daily Summary

Daily Weather History Graph

Daily Weather History Graph

Search for Another Location

Airport or City:

Astronomy

May. 05, 2019 Rise Set
Actual Time 6:03 AM CDT 7:53 PM CDT
Civil Twilight 5:35 AM CDT 8:21 PM CDT
Nautical Twilight 5:01 AM CDT 8:55 PM CDT
Astronomical Twilight 4:25 AM CDT 9:31 PM CDT
Moon 6:46 AM CDT (5/5) 8:46 PM CDT (5/5)
Length of Visible Light 14h 46m
Length of Day
13h 49m
New Moon, 1% of the Moon is Illuminated
May 5
New Moon
May 11
First Quarter
May 18
Full
May 26
Last Quarter
Jun 3
New

Hourly Weather History & Observations

Time (CDT) Temp. Dew Point Humidity Pressure Visibility Wind Dir Wind Speed Gust Speed Precip Events Conditions
12:53 AM 53.1 °F 52.0 °F 96% 29.89 in 10.0 mi NNW 3.5 mph - N/A   Clear
1:53 AM 52.0 °F 51.1 °F 97% 29.88 in 10.0 mi NW 3.5 mph - N/A   Clear
2:53 AM 51.1 °F 50.0 °F 96% 29.89 in 10.0 mi NNW 4.6 mph - N/A   Clear
3:53 AM 50.0 °F 48.9 °F 96% 29.89 in 10.0 mi NNW 5.8 mph - N/A   Clear
4:53 AM 48.9 °F 48.9 °F 100% 29.90 in 10.0 mi Calm Calm - N/A   Clear
5:53 AM 48.9 °F 48.0 °F 97% 29.90 in 10.0 mi North 3.5 mph - N/A   Clear
6:53 AM 50.0 °F 48.9 °F 96% 29.92 in 10.0 mi NW 5.8 mph - N/A   Clear
7:53 AM 54.0 °F 51.1 °F 90% 29.93 in 10.0 mi NNW 8.1 mph - N/A   Clear
8:53 AM 59.0 °F 53.1 °F 81% 29.94 in 10.0 mi North 8.1 mph - N/A   Clear
9:53 AM 63.0 °F 54.0 °F 72% 29.95 in 10.0 mi North 6.9 mph - N/A   Partly Cloudy
10:53 AM 64.9 °F 52.0 °F 63% 29.96 in 10.0 mi Calm Calm - N/A   Partly Cloudy
11:53 AM 66.0 °F 52.0 °F 60% 29.94 in 10.0 mi East 5.8 mph - N/A   Clear
12:53 PM 69.1 °F 53.1 °F 57% 29.93 in 10.0 mi NNE 8.1 mph - N/A   Clear
1:53 PM 71.1 °F 54.0 °F 55% 29.93 in 10.0 mi NNE 4.6 mph - N/A   Clear
2:53 PM 72.0 °F 53.1 °F 51% 29.92 in 10.0 mi NE 5.8 mph - N/A   Clear
3:53 PM 72.0 °F 53.1 °F 51% 29.91 in 10.0 mi East 5.8 mph - N/A   Clear
4:53 PM 72.0 °F 53.1 °F 51% 29.90 in 10.0 mi SSE 8.1 mph - N/A   Clear
5:53 PM 72.0 °F 52.0 °F 49% 29.91 in 10.0 mi Variable 3.5 mph - N/A   Clear
6:53 PM 71.1 °F 52.0 °F 51% 29.90 in 10.0 mi SSE 5.8 mph - N/A   Clear
7:53 PM 66.0 °F 55.9 °F 70% 29.90 in 10.0 mi South 3.5 mph - N/A   Clear
8:53 PM 63.0 °F 55.9 °F 78% 29.91 in 10.0 mi Calm Calm - N/A   Clear
9:53 PM 61.0 °F 57.9 °F 90% 29.93 in 10.0 mi Calm Calm - N/A   Clear
10:53 PM 59.0 °F 57.9 °F 96% 29.94 in 10.0 mi Calm Calm - N/A   Clear
11:53 PM 57.0 °F 57.0 °F 100% 29.94 in 10.0 mi Calm Calm - N/A   Clear